Date String (YYYY-MM-DD hh:mm:ss) UTC,Instrument flags,Ambient pressure (hPa),Sample flow (lpm),Bypass flow (lpm),Sample temperature (°C),Ambient temperature (°C),ASC tube jacket temperature (°C),LED temperature (°C),Box temperature (°C),Sample RH (%),Span deviation,Mass concentration (μg/m³),Mass concentration (μg/m³),Mass concentration (μg/m³)
DateTimeUTC,F1_M11,P_M11,Q1_M11,Q2_M11,T1_M11,T2_M11,T3_M11,T4_M11,T5_M11,U1_M11,ZSPAN_M11,X0_M11,X2_M11,X1_M11
2021-09-21 14:00:00,,0840.7,5.00,0.00,27.6,26.5,00.0,36.7,29.3,17.5,0000.0,0002.08,0001.55,0001.37
2021-09-21 14:01:00,,0840.8,5.00,0.00,27.6,26.5,00.0,36.7,29.3,17.2,0000.0,0002.11,0001.56,0001.36
2021-09-21 14:02:00,,0840.7,5.00,0.00,27.6,26.5,00.0,36.7,29.3,17.4,0000.0,0002.11,0001.56,0001.36
2021-09-21 14:03:00,,0840.8,5.01,0.00,27.6,26.5,00.0,36.7,29.3,17.6,0000.0,0002.34,0001.56,0001.37
2021-09-21 14:04:00,,0840.8,4.99,0.00,27.6,26.5,00.0,36.7,29.3,17.5,0000.0,0002.36,0001.57,0001.37
2021-09-21 14:05:00,,0840.8,5.01,0.00,27.6,26.5,00.0,36.7,29.3,17.7,0000.0,0002.35,0001.56,0001.37
2021-09-21 14:06:00,,0840.8,5.00,0.00,27.6,26.4,00.0,36.7,29.3,17.8,0000.0,0002.33,0001.56,0001.38
2021-09-21 14:07:00,,0840.8,5.00,0.00,27.6,26.4,00.0,36.7,29.3,17.7,0000.0,0002.38,0001.57,0001.38
2021-09-21 14:08:00,,0840.8,4.99,0.00,27.6,26.4,00.0,36.7,29.4,17.8,0000.0,0002.36,0001.58,0001.37
2021-09-21 14:09:00,,0840.8,5.00,0.00,27.6,26.4,00.0,36.7,29.4,18.0,0000.0,0002.40,0001.61,0001.37
2021-09-21 14:10:00,,0840.9,5.00,0.00,27.6,26.5,00.0,36.7,29.4,18.1,0000.0,0002.37,0001.60,0001.36
2021-09-21 14:11:00,,0840.9,5.00,0.00,27.6,26.5,00.0,36.7,29.4,18.4,0000.0,0002.51,0001.63,0001.36
2021-09-21 14:12:00,,0840.9,4.99,0.00,27.6,26.5,00.0,36.7,29.4,18.0,0000.0,0002.50,0001.62,0001.37
2021-09-21 14:13:00,,0840.9,5.00,0.00,27.6,26.5,00.0,36.7,29.4,17.5,0000.0,0002.50,0001.61,0001.37
2021-09-21 14:14:00,,0840.9,5.01,0.00,27.6,26.5,00.0,36.7,29.4,17.7,0000.0,0002.25,0001.59,0001.38
2021-09-21 14:15:00,,0840.9,4.98,0.00,27.6,26.5,00.0,36.8,29.4,18.2,0000.0,0002.20,0001.59,0001.37
2021-09-21 14:16:00,,0840.9,5.00,0.00,27.6,26.6,00.0,36.8,29.4,18.5,0000.0,0002.25,0001.63,0001.37
2021-09-21 14:17:00,,0840.8,4.99,0.00,27.6,26.6,00.0,36.8,29.4,18.4,0000.0,0002.25,0001.63,0001.37
2021-09-21 14:18:00,,0840.9,4.99,0.00,27.7,26.6,00.0,36.8,29.4,18.4,0000.0,0002.14,0001.58,0001.36
2021-09-21 14:19:00,,0840.9,5.01,0.00,27.7,26.6,00.0,36.8,29.5,18.5,0000.0,0002.10,0001.58,0001.37
2021-09-21 14:20:00,,0840.9,4.99,0.00,27.7,26.6,00.0,36.8,29.4,18.5,0000.0,0002.05,0001.56,0001.38
2021-09-21 14:21:00,,0840.9,5.02,0.00,27.7,26.6,00.0,36.8,29.5,18.6,0000.0,0002.08,0001.58,0001.39
2021-09-21 14:22:00,,0840.9,5.00,0.00,27.7,26.7,00.0,36.8,29.5,18.5,0000.0,0002.02,0001.58,0001.39
2021-09-21 14:23:00,,0840.9,5.00,0.00,27.7,26.7,00.0,36.8,29.5,18.7,0000.0,0002.01,0001.58,0001.39
2021-09-21 14:24:00,,0840.9,5.00,0.00,27.7,26.7,00.0,36.8,29.5,17.8,0000.0,0002.04,0001.59,0001.39
2021-09-21 14:25:00,,0840.9,5.00,0.00,27.7,26.7,00.0,36.8,29.5,18.1,0000.0,0002.08,0001.61,0001.39
2021-09-21 14:26:00,,0840.9,4.99,0.00,27.7,26.7,00.0,36.8,29.5,17.8,0000.0,0002.11,0001.61,0001.38
2021-09-21 14:27:00,,0841.0,4.99,0.00,27.7,26.7,00.0,36.8,29.5,18.0,0000.0,0002.12,0001.60,0001.40
2021-09-21 14:28:00,,0840.9,5.00,0.00,27.7,26.7,00.0,36.8,29.5,18.0,0000.0,0002.20,0001.62,0001.40
2021-09-21 14:29:00,,0840.9,5.00,0.00,27.7,26.7,00.0,36.8,29.5,18.2,0000.0,0002.25,0001.65,0001.41
2021-09-21 14:30:00,,0841.0,5.00,0.00,27.7,26.7,00.0,36.8,29.5,18.2,0000.0,0002.34,0001.68,0001.41
2021-09-21 14:31:00,,0841.0,4.99,0.00,27.7,26.8,00.0,36.8,29.5,18.6,0000.0,0002.43,0001.71,0001.41
2021-09-21 14:32:00,,0841.0,5.01,0.00,27.7,26.8,00.0,36.8,29.5,17.9,0000.0,0002.45,0001.70,0001.41
2021-09-21 14:33:00,,0841.0,4.99,0.00,27.7,26.8,00.0,36.8,29.5,18.0,0000.0,0002.49,0001.72,0001.42
2021-09-21 14:34:00,,0841.0,5.00,0.00,27.7,26.8,00.0,36.8,29.5,18.2,0000.0,0003.21,0001.75,0001.43
2021-09-21 14:35:00,,0841.0,5.01,0.00,27.7,26.8,00.0,36.8,29.6,17.9,0000.0,0003.42,0001.75,0001.44
2021-09-21 14:36:00,,0841.0,5.00,0.00,27.7,26.8,00.0,36.8,29.5,18.0,0000.0,0003.34,0001.72,0001.45
2021-09-21 14:37:00,,0841.0,5.02,0.00,27.7,26.8,00.0,36.8,29.5,18.6,0000.0,0003.35,0001.75,0001.46
2021-09-21 14:38:00,,0841.0,4.97,0.00,27.7,26.8,00.0,36.8,29.5,18.7,0000.0,0003.52,0001.79,0001.46
2021-09-21 14:39:00,,0841.1,5.01,0.00,27.7,26.8,00.0,36.8,29.5,18.7,0000.0,0003.95,0001.78,0001.46
2021-09-21 14:40:00,,0841.1,5.00,0.00,27.7,26.8,00.0,36.8,29.5,18.8,0000.0,0004.07,0001.84,0001.47
2021-09-21 14:41:00,,0841.1,5.00,0.00,27.7,26.8,00.0,36.8,29.5,18.6,0000.0,0004.17,0001.85,0001.48
2021-09-21 14:42:00,,0841.1,5.01,0.00,27.7,26.8,00.0,36.8,29.6,19.1,0000.0,0004.16,0001.84,0001.48
2021-09-21 14:43:00,,0841.1,5.00,0.00,27.7,26.8,00.0,36.8,29.6,18.9,0000.0,0004.26,0001.87,0001.50
2021-09-21 14:44:00,,0841.1,4.99,0.00,27.7,26.8,00.0,36.8,29.6,17.9,0000.0,0004.21,0001.86,0001.51
2021-09-21 14:45:00,,0841.1,5.00,0.00,27.7,26.9,00.0,36.8,29.6,17.0,0000.0,0003.43,0001.82,0001.51
2021-09-21 14:46:00,,0841.1,5.01,0.00,27.7,26.9,00.0,36.8,29.6,17.8,0000.0,0003.33,0001.86,0001.51
2021-09-21 14:47:00,,0841.1,4.99,0.00,27.7,26.9,00.0,36.8,29.6,17.2,0000.0,0003.45,0001.91,0001.52
2021-09-21 14:48:00,,0841.1,5.01,0.00,27.7,26.9,00.0,36.8,29.6,17.8,0000.0,0004.02,0001.90,0001.51
2021-09-21 14:49:00,,0841.1,5.00,0.00,27.7,26.9,00.0,36.8,29.6,17.3,0000.0,0003.90,0001.86,0001.50
2021-09-21 14:50:00,,0841.1,5.00,0.00,27.7,26.9,00.0,36.8,29.6,17.1,0000.0,0003.50,0001.89,0001.51
2021-09-21 14:51:00,,0841.1,5.00,0.00,27.7,26.9,00.0,36.8,29.6,17.1,0000.0,0003.40,0001.84,0001.50
2021-09-21 14:52:00,,0841.2,5.00,0.00,27.8,26.9,00.0,36.8,29.6,17.3,0000.0,0003.34,0001.84,0001.50
2021-09-21 14:53:00,,0841.1,4.98,0.00,27.7,26.9,00.0,36.9,29.6,17.1,0000.0,0003.37,0001.87,0001.50
2021-09-21 14:54:00,,0841.2,5.01,0.00,27.8,26.9,00.0,36.9,29.6,17.6,0000.0,0003.28,0001.85,0001.48
2021-09-21 14:55:00,,0841.2,4.99,0.00,27.8,26.9,00.0,36.9,29.6,16.8,0000.0,0003.24,0001.82,0001.46
2021-09-21 14:56:00,,0841.3,5.01,0.00,27.8,26.9,00.0,36.9,29.6,16.9,0000.0,0003.32,0001.83,0001.46
2021-09-21 14:57:00,,0841.3,5.00,0.00,27.8,26.9,00.0,36.9,29.6,16.8,0000.0,0003.27,0001.80,0001.45
2021-09-21 14:58:00,,0841.3,4.99,0.00,27.8,26.9,00.0,36.9,29.6,17.8,0000.0,0003.19,0001.78,0001.45
2021-09-21 14:59:00,,0841.3,5.00,0.00,27.8,27.0,00.0,36.9,29.6,17.7,0000.0,0002.88,0001.79,0001.45
